Home > Weather > Palma > Past weeks

Flag for Spain Weather for the Past 2 Weeks in Palma, Majorca, Spain

Now
57 °F

Passing clouds.


Feels Like: 56 °F
Forecast: 51 / 62 °F
Wind: 7 mph from Southwest

Location: Palma De Mallorca / Son San Juan

Current Time: Feb 7, 2016 at 7:17:47 AM

Latest Report: Feb 7, 2016 at 6:30 AM


Visibility: N/A

Pressure: 29.86 "Hg

Humidity: 94%

Dew point: 55 °F

Location of PalmaLocation

Historic Weather in Palma — Graph

°F

Palma Temperature Yesterday

Maximum temperature yesterday: 63 °F (at 12:00 PM)
Minimum temperature yesterday: 41 °F (at 1:30 AM)
Average temperature yesterday: 53 °F

High & Low Weather Summary for the Past Weeks

 TemperatureHumidityPressure
High72 °F (Feb 1, 1:30 PM)100% (Jan 23, 6:00 AM)30.60 "Hg (Jan 23, 6:00 AM)
Low36 °F (Feb 5, 7:30 AM)46% (Feb 1, 12:30 PM)29.86 "Hg (Feb 7, 5:30 AM)
Average53 °F86%30.41 "Hg
* Reported Jan 23 6:00 AM — Feb 7 6:00 AM, Palma, Weather by CustomWeather, © 2016

Note: Actual official high and low records may vary slightly from our data, if they occured in-between our weather recording intervals... More about our weather records

Advertising

Palma Weather History for the Previous 24 Hours

 ConditionsComfort  
Time TempWeatherWind HumidityBarometerVisibility
6:00 AM
Sun, Feb 7
54 °FPassing clouds.5 mph94%29.86 "HgN/A
5:30 AM54 °FPassing clouds.3 mph94%29.86 "HgN/A
5:00 AM54 °FPassing clouds.1 mph94%29.89 "HgN/A
4:30 AM52 °FPassing clouds.No wind100%29.89 "HgN/A
4:00 AM52 °FPassing clouds.1 mph100%29.92 "HgN/A
3:30 AM52 °FPassing clouds.1 mph94%29.92 "HgN/A
3:00 AM52 °FPassing clouds.1 mph94%29.95 "HgN/A
2:30 AM50 °FPassing clouds.1 mph100%29.95 "HgN/A
2:00 AM50 °FPassing clouds.No wind94%29.98 "HgN/A
1:30 AM50 °FPassing clouds.1 mph94%29.98 "HgN/A
1:00 AM48 °FPassing clouds.2 mph100%30.01 "HgN/A
12:30 AM48 °FPassing clouds.No wind94%30.04 "HgN/A
12:00 AM45 °FPassing clouds.1 mph100%30.04 "HgN/A
11:30 PM
Sat, Feb 6
46 °FPassing clouds.2 mph100%30.04 "HgN/A
11:00 PM46 °FPassing clouds.3 mph93%30.04 "HgN/A
10:00 PM50 °FPassing clouds.1 mph94%30.07 "HgN/A
9:30 PM55 °FPassing clouds.No wind88%30.09 "HgN/A
9:00 PM57 °FPassing clouds.3 mph82%30.09 "HgN/A
8:30 PM55 °FPassing clouds.3 mph88%30.09 "HgN/A
8:00 PM57 °FPassing clouds.5 mph88%30.09 "HgN/A
7:30 PM57 °FPassing clouds.5 mph88%30.09 "HgN/A
7:00 PM57 °FPassing clouds.6 mph82%30.09 "HgN/A
6:30 PM59 °FPassing clouds.9 mph82%30.09 "HgN/A
6:00 PM59 °FPassing clouds.7 mph88%30.09 "HgN/A
5:30 PM59 °FPassing clouds.9 mph88%30.09 "HgN/A
5:00 PM61 °FPassing clouds.9 mph83%30.09 "HgN/A
4:30 PM61 °FPassing clouds.9 mph83%30.12 "HgN/A
4:00 PM61 °FPassing clouds.8 mph83%30.12 "HgN/A
3:30 PM63 °FPassing clouds.6 mph77%30.12 "HgN/A
3:00 PM63 °FPassing clouds.7 mph73%30.12 "HgN/A
2:30 PM63 °FPassing clouds.5 mph73%30.15 "HgN/A
2:00 PM63 °FPassing clouds.7 mph73%30.15 "HgN/A
1:30 PM63 °FScattered clouds.7 mph73%30.18 "HgN/A
1:00 PM63 °FScattered clouds.6 mph73%30.18 "HgN/A
12:30 PM63 °FScattered clouds.1 mph73%30.21 "HgN/A
12:00 PM63 °FPassing clouds.1 mph73%30.21 "HgN/A
11:30 AM61 °FPassing clouds.3 mph77%30.24 "HgN/A
11:00 AM59 °FPassing clouds.6 mph82%30.24 "HgN/A
10:30 AM57 °FPassing clouds.3 mph88%30.24 "HgN/A
10:00 AM54 °FPassing clouds.3 mph88%30.24 "HgN/A
9:30 AM50 °FPassing clouds.5 mph94%30.24 "HgN/A
9:00 AM46 °FPassing clouds.2 mph100%30.24 "HgN/A
8:30 AM46 °FPassing clouds.3 mph93%30.24 "HgN/A
8:00 AM45 °FPassing clouds.2 mph100%30.24 "HgN/A
7:30 AM45 °FPassing clouds.2 mph100%30.24 "HgN/A
7:00 AM46 °FPassing clouds.2 mph93%30.24 "HgN/A
Weather by CustomWeather, © 2016

See weather overviewHow to use our weather pages